Location: Bailleul
(50.3375°N, 2.8513°E)
Time: 17:20:28
(UTC+00:00)

ARIANE 5 R/B - Pass Details

Date: 19 April 2021
Orbit: 620 x 656 km, 98.1° (Epoch: 02 May)

Event Time Altitude Azimuth Distance (km) Brightness Sun altitude
Exits shadow 20:32:23 26° 133° (SE) 1,273 3.5 -15.0°
Maximum altitude 20:34:39 51° 70° (ENE) 808 2.9 -15.3°
Drops below altitude 10° 20:38:54 10° 355° (N) 2,021 5.9 -15.8°
Sets 20:41:08 0° 350° (N) 2,928 6.9 -16.0°
